When you browse on this site, cookies collect data to enhance your experience and personalize the content and advertising you see.
Visit our Privacy Policy to learn more. By continuing to use the site, you agree to this use of cookies and data.
  • In Belgien
  • Länderverzeichnis
  • Für 7 Tage
  • Wassertemperatur
  • Wetterkarte
  • Widgets
  • user-avatar
    Anmelden

    Stündliche Wetter San Fernando de Apure

    Heute, 5 April, Sonntag

    Zeit Temperatur Niederschläge Wind Luftdruck Luftfeuchtigkeit
    00:00 +28°C° 0 mm 1 m/S 752 mmHg 80%
    01:00 +25°C° 0 mm 0 m/S 751 mmHg 81%
    02:00 +25°C° 0 mm 0 m/S 751 mmHg 80%
    03:00 +27°C° 0 mm 1 m/S 751 mmHg 81%
    04:00 +27°C° 0 mm 1 m/S 751 mmHg 83%
    05:00 +27°C° 0 mm 1 m/S 751 mmHg 84%
    06:00 +28°C° 0 mm 1 m/S 752 mmHg 80%
    07:00 +28°C° 0 mm 2 m/S 752 mmHg 77%
    08:00 +29°C° 0 mm 2 m/S 753 mmHg 74%
    09:00 +31°C° 0 mm 3 m/S 753 mmHg 66%
    10:00 +34°C° 0 mm 3 m/S 754 mmHg 57%
    11:00 +36°C° 0 mm 3 m/S 754 mmHg 49%
    12:00 +37°C° 0 mm 3 m/S 753 mmHg 47%
    13:00 +37°C° 0 mm 3 m/S 752 mmHg 45%
    14:00 +38°C° 0 mm 3 m/S 751 mmHg 42%
    15:00 +38°C° 0 mm 2 m/S 750 mmHg 42%
    16:00 +38°C° 0 mm 2 m/S 750 mmHg 41%
    17:00 +38°C° 0 mm 2 m/S 749 mmHg 41%
    18:00 +36°C° 0 mm 1 m/S 750 mmHg 45%
    19:00 +34°C° 0 mm 1 m/S 750 mmHg 48%
    20:00 +31°C° 0 mm 0 m/S 751 mmHg 52%
    21:00 +32°C° 0 mm 1 m/S 751 mmHg 52%
    22:00 +32°C° 0 mm 1 m/S 751 mmHg 53%
    23:00 +32°C° 0 mm 1 m/S 752 mmHg 53%

    Morgen, 6 April, Montag

    Zeit Temperatur Niederschläge Wind Luftdruck Luftfeuchtigkeit
    00:00 +32°C° 0 mm 1 m/S 752 mmHg 55%
    01:00 +31°C° 0 mm 1 m/S 752 mmHg 56%
    02:00 +31°C° 0 mm 2 m/S 751 mmHg 58%
    03:00 +30°C° 0 mm 2 m/S 752 mmHg 60%
    04:00 +30°C° 0 mm 2 m/S 752 mmHg 63%
    05:00 +29°C° 0 mm 2 m/S 752 mmHg 65%
    06:00 +30°C° 0 mm 3 m/S 752 mmHg 64%
    07:00 +30°C° 0 mm 3 m/S 753 mmHg 63%
    08:00 +32°C° 0 mm 4 m/S 754 mmHg 62%
    09:00 +33°C° 0 mm 4 m/S 754 mmHg 58%
    10:00 +35°C° 0 mm 4 m/S 754 mmHg 53%
    11:00 +36°C° 0 mm 4 m/S 754 mmHg 49%
    12:00 +37°C° 0 mm 4 m/S 753 mmHg 46%
    13:00 +38°C° 0 mm 4 m/S 752 mmHg 43%
    14:00 +40°C° 0 mm 4 m/S 751 mmHg 41%
    15:00 +39°C° 0 mm 3 m/S 750 mmHg 40%
    16:00 +39°C° 0 mm 3 m/S 750 mmHg 40%
    17:00 +39°C° 0 mm 3 m/S 749 mmHg 40%
    18:00 +38°C° 0 mm 2 m/S 750 mmHg 44%
    19:00 +36°C° 0 mm 2 m/S 751 mmHg 48%
    20:00 +34°C° 0 mm 1 m/S 751 mmHg 51%
    21:00 +33°C° 0 mm 1 m/S 752 mmHg 52%
    22:00 +33°C° 0 mm 1 m/S 752 mmHg 53%
    23:00 +32°C° 0 mm 1 m/S 753 mmHg 54%

    übermorgen, 7 April, Dienstag

    Zeit Temperatur Niederschläge Wind Luftdruck Luftfeuchtigkeit
    00:00 +32°C° 0 mm 1 m/S 752 mmHg 55%
    01:00 +31°C° 0 mm 2 m/S 752 mmHg 56%
    02:00 +31°C° 0 mm 2 m/S 752 mmHg 57%
    03:00 +30°C° 0 mm 2 m/S 752 mmHg 58%
    04:00 +30°C° 0 mm 2 m/S 752 mmHg 60%
    05:00 +30°C° 0 mm 2 m/S 752 mmHg 61%
    06:00 +30°C° 0 mm 3 m/S 753 mmHg 60%
    07:00 +30°C° 0 mm 4 m/S 753 mmHg 60%
    08:00 +32°C° 0 mm 5 m/S 754 mmHg 59%
    09:00 +33°C° 0 mm 4 m/S 754 mmHg 55%
    10:00 +35°C° 0 mm 4 m/S 754 mmHg 51%
    11:00 +36°C° 0 mm 4 m/S 755 mmHg 47%
    12:00 +37°C° 0 mm 4 m/S 754 mmHg 44%
    13:00 +38°C° 0 mm 3 m/S 753 mmHg 41%
    14:00 +39°C° 0 mm 3 m/S 752 mmHg 39%
    15:00 +39°C° 0 mm 3 m/S 751 mmHg 38%
    16:00 +39°C° 0 mm 2 m/S 750 mmHg 38%
    17:00 +38°C° 0 mm 2 m/S 749 mmHg 38%
    18:00 +37°C° 0 mm 2 m/S 750 mmHg 41%
    19:00 +35°C° 0 mm 1 m/S 750 mmHg 44%
    20:00 +32°C° 0 mm 0 m/S 750 mmHg 47%
    21:00 +33°C° 0 mm 1 m/S 751 mmHg 49%
    22:00 +33°C° 0 mm 1 m/S 752 mmHg 50%
    23:00 +33°C° 0 mm 1 m/S 752 mmHg 51%

    8 April, Mittwoch

    Zeit Temperatur Niederschläge Wind Luftdruck Luftfeuchtigkeit
    00:00 +32°C° 0 mm 1 m/S 752 mmHg 53%
    01:00 +32°C° 0 mm 2 m/S 752 mmHg 55%
    02:00 +32°C° 0 mm 2 m/S 751 mmHg 57%
    03:00 +31°C° 0 mm 3 m/S 751 mmHg 59%
    04:00 +30°C° 0 mm 3 m/S 752 mmHg 61%
    05:00 +30°C° 0 mm 3 m/S 752 mmHg 64%
    06:00 +30°C° 0 mm 4 m/S 752 mmHg 64%
    07:00 +30°C° 0 mm 4 m/S 753 mmHg 64%
    08:00 +32°C° 0 mm 4 m/S 754 mmHg 63%
    09:00 +33°C° 0 mm 4 m/S 754 mmHg 58%
    10:00 +35°C° 0 mm 5 m/S 754 mmHg 53%
    11:00 +36°C° 0 mm 5 m/S 754 mmHg 48%
    12:00 +38°C° 0 mm 4 m/S 753 mmHg 44%
    13:00 +40°C° 0 mm 4 m/S 752 mmHg 41%
    14:00 +41°C° 0 mm 4 m/S 750 mmHg 37%
    15:00 +41°C° 0 mm 4 m/S 750 mmHg 37%
    16:00 +40°C° 0 mm 3 m/S 749 mmHg 37%
    17:00 +39°C° 0 mm 3 m/S 749 mmHg 37%
    18:00 +38°C° 0 mm 3 m/S 749 mmHg 41%
    19:00 +36°C° 0 mm 2 m/S 750 mmHg 44%
    20:00 +35°C° 0 mm 2 m/S 750 mmHg 48%
    21:00 +34°C° 0 mm 2 m/S 751 mmHg 49%
    22:00 +33°C° 0 mm 1 m/S 751 mmHg 51%
    23:00 +32°C° 0 mm 1 m/S 752 mmHg 52%

    9 April, Donnerstag

    Zeit Temperatur Niederschläge Wind Luftdruck Luftfeuchtigkeit
    00:00 +32°C° 0 mm 1 m/S 752 mmHg 53%
    01:00 +32°C° 0 mm 1 m/S 751 mmHg 54%
    02:00 +31°C° 0 mm 1 m/S 751 mmHg 55%
    03:00 +31°C° 0 mm 2 m/S 751 mmHg 57%
    04:00 +30°C° 0 mm 2 m/S 751 mmHg 59%
    05:00 +30°C° 0 mm 2 m/S 752 mmHg 61%
    06:00 +31°C° 0 mm 2 m/S 752 mmHg 60%
    07:00 +31°C° 0 mm 3 m/S 753 mmHg 59%
    08:00 +32°C° 0 mm 4 m/S 753 mmHg 58%
    09:00 +34°C° 0 mm 4 m/S 753 mmHg 53%
    10:00 +35°C° 0 mm 3 m/S 753 mmHg 49%
    11:00 +37°C° 0 mm 3 m/S 753 mmHg 45%
    12:00 +38°C° 0 mm 3 m/S 752 mmHg 41%
    13:00 +39°C° 0 mm 3 m/S 751 mmHg 38%
    14:00 +41°C° 0 mm 2 m/S 750 mmHg 34%
    15:00 +40°C° 0 mm 2 m/S 750 mmHg 34%
    16:00 +40°C° 0 mm 2 m/S 749 mmHg 34%
    17:00 +39°C° 0 mm 2 m/S 749 mmHg 35%
    18:00 +37°C° 0 mm 1 m/S 749 mmHg 38%
    19:00 +36°C° 0 mm 1 m/S 750 mmHg 41%
    20:00 +35°C° 0 mm 1 m/S 750 mmHg 44%
    21:00 +34°C° 0 mm 1 m/S 751 mmHg 47%
    22:00 +33°C° 0 mm 1 m/S 751 mmHg 50%
    23:00 +33°C° 0 mm 1 m/S 752 mmHg 53%

    10 April, Freitag

    Zeit Temperatur Niederschläge Wind Luftdruck Luftfeuchtigkeit
    00:00 +32°C° 0.2 mm 1 m/S 752 mmHg 59%
    01:00 +31°C° 0.2 mm 1 m/S 752 mmHg 65%
    02:00 +30°C° 0.2 mm 1 m/S 752 mmHg 71%
    03:00 +30°C° 0.4 mm 1 m/S 752 mmHg 74%
    04:00 +29°C° 0.4 mm 1 m/S 752 mmHg 76%
    05:00 +29°C° 0.4 mm 1 m/S 752 mmHg 79%
    06:00 +29°C° 0 mm 1 m/S 753 mmHg 76%
    07:00 +30°C° 0 mm 1 m/S 753 mmHg 72%
    08:00 +31°C° 0 mm 1 m/S 754 mmHg 68%
    09:00 +34°C° 0 mm 2 m/S 754 mmHg 60%
    10:00 +36°C° 0 mm 2 m/S 754 mmHg 51%
    11:00 +37°C° 0 mm 2 m/S 754 mmHg 43%
    12:00 +39°C° 0 mm 2 m/S 753 mmHg 39%
    13:00 +40°C° 0 mm 2 m/S 752 mmHg 35%
    14:00 +41°C° 0 mm 2 m/S 751 mmHg 31%
    15:00 +41°C° 0 mm 2 m/S 751 mmHg 31%
    16:00 +40°C° 0 mm 2 m/S 750 mmHg 31%
    17:00 +40°C° 0 mm 2 m/S 749 mmHg 32%
    18:00 +37°C° 0 mm 1 m/S 750 mmHg 34%
    19:00 +36°C° 0 mm 1 m/S 750 mmHg 37%
    20:00 +33°C° 0 mm 0 m/S 751 mmHg 39%
    21:00 +34°C° 0 mm 1 m/S 751 mmHg 41%
    22:00 +34°C° 0 mm 1 m/S 752 mmHg 42%
    23:00 +33°C° 0 mm 1 m/S 752 mmHg 44%
    Mehr zeigen